• In Belarus
  • List of Countries
  • For 7 days
  • Water Temperature
  • Satellite Maps
  • Weather Map
  • Weather Widgets
  • user-avatar
    Login

    Hourly Weather Shusha

    Today, 22 October, Sunday

    Time Temperature Precipitation Wind Pressure Humidity
    00:00 +10°C° 0 mm 1 mps 658 mmHg 60%
    01:00 +10°C° 0 mm 1 mps 658 mmHg 58%
    02:00 +10°C° 0 mm 1 mps 658 mmHg 57%
    03:00 +10°C° 0 mm 1 mps 658 mmHg 54%
    04:00 +8°C° 0 mm 2 mps 658 mmHg 53%
    05:00 +8°C° 0 mm 2 mps 658 mmHg 52%
    06:00 +8°C° 0 mm 2 mps 657 mmHg 51%
    07:00 +11°C° 0 mm 1 mps 658 mmHg 48%
    08:00 +12°C° 0 mm 1 mps 658 mmHg 44%
    09:00 +14°C° 0 mm 1 mps 659 mmHg 42%
    10:00 +15°C° 0 mm 2 mps 658 mmHg 39%
    11:00 +16°C° 0 mm 2 mps 658 mmHg 36%
    12:00 +17°C° 0 mm 3 mps 658 mmHg 34%
    13:00 +17°C° 0 mm 3 mps 658 mmHg 33%
    14:00 +17°C° 0 mm 3 mps 658 mmHg 33%
    15:00 +17°C° 0 mm 2 mps 657 mmHg 33%
    16:00 +16°C° 0 mm 2 mps 657 mmHg 38%
    17:00 +14°C° 0 mm 1 mps 657 mmHg 44%
    18:00 +12°C° 0 mm 1 mps 657 mmHg 49%
    19:00 +12°C° 0 mm 1 mps 657 mmHg 50%
    20:00 +11°C° 0 mm 1 mps 657 mmHg 50%
    21:00 +11°C° 0 mm 1 mps 657 mmHg 51%
    22:00 +11°C° 0 mm 1 mps 657 mmHg 50%
    23:00 +10°C° 0 mm 1 mps 657 mmHg 50%

    Tomorrow, 23 October, Monday

    Time Temperature Precipitation Wind Pressure Humidity
    00:00 +10°C° 0 mm 1 mps 657 mmHg 50%
    01:00 +9°C° 0 mm 2 mps 657 mmHg 49%
    02:00 +9°C° 0 mm 2 mps 657 mmHg 49%
    03:00 +8°C° 0 mm 2 mps 657 mmHg 48%
    04:00 +8°C° 0 mm 2 mps 657 mmHg 48%
    05:00 +8°C° 0 mm 2 mps 657 mmHg 47%
    06:00 +8°C° 0 mm 2 mps 657 mmHg 47%
    07:00 +10°C° 0 mm 2 mps 658 mmHg 42%
    08:00 +13°C° 0 mm 2 mps 659 mmHg 38%
    09:00 +14°C° 0 mm 2 mps 660 mmHg 33%
    10:00 +15°C° 0 mm 2 mps 660 mmHg 32%
    11:00 +16°C° 0 mm 2 mps 661 mmHg 31%
    12:00 +17°C° 0 mm 3 mps 661 mmHg 30%
    13:00 +17°C° 0 mm 3 mps 661 mmHg 31%
    14:00 +17°C° 0 mm 3 mps 661 mmHg 32%
    15:00 +16°C° 0 mm 3 mps 661 mmHg 33%
    16:00 +14°C° 0 mm 3 mps 661 mmHg 41%
    17:00 +12°C° 0 mm 3 mps 661 mmHg 49%
    18:00 +10°C° 0 mm 3 mps 661 mmHg 57%
    19:00 +10°C° 0 mm 2 mps 661 mmHg 63%
    20:00 +9°C° 0 mm 2 mps 661 mmHg 69%
    21:00 +9°C° 0 mm 2 mps 661 mmHg 75%
    22:00 +8°C° 0.1 mm 2 mps 661 mmHg 77%
    23:00 +8°C° 0.1 mm 2 mps 661 mmHg 78%

    Day after tomorrow, 24 October, Tuesday

    Time Temperature Precipitation Wind Pressure Humidity
    00:00 +8°C° 0.1 mm 2 mps 661 mmHg 79%
    01:00 +8°C° 0.1 mm 2 mps 661 mmHg 80%
    02:00 +8°C° 0.1 mm 2 mps 661 mmHg 80%
    03:00 +9°C° 0.1 mm 1 mps 661 mmHg 81%
    04:00 +9°C° 0 mm 1 mps 661 mmHg 80%
    05:00 +9°C° 0 mm 1 mps 661 mmHg 79%
    06:00 +8°C° 0 mm 1 mps 661 mmHg 78%
    07:00 +10°C° 0 mm 1 mps 661 mmHg 73%
    08:00 +11°C° 0 mm 1 mps 662 mmHg 68%
    09:00 +12°C° 0 mm 2 mps 662 mmHg 63%
    10:00 +13°C° 0 mm 2 mps 662 mmHg 60%
    11:00 +14°C° 0 mm 2 mps 662 mmHg 57%
    12:00 +15°C° 0 mm 2 mps 662 mmHg 54%
    13:00 +15°C° 0 mm 2 mps 662 mmHg 54%
    14:00 +15°C° 0 mm 2 mps 662 mmHg 54%
    15:00 +15°C° 0 mm 2 mps 661 mmHg 54%
    16:00 +14°C° 0 mm 2 mps 661 mmHg 59%
    17:00 +13°C° 0 mm 1 mps 661 mmHg 65%
    18:00 +11°C° 0 mm 1 mps 661 mmHg 70%
    19:00 +11°C° 0 mm 1 mps 661 mmHg 68%
    20:00 +11°C° 0 mm 1 mps 662 mmHg 66%
    21:00 +11°C° 0 mm 1 mps 662 mmHg 64%
    22:00 +11°C° 0 mm 1 mps 662 mmHg 62%
    23:00 +10°C° 0 mm 1 mps 662 mmHg 60%

    25 October, Wednesday

    Time Temperature Precipitation Wind Pressure Humidity
    00:00 +10°C° 0 mm 1 mps 662 mmHg 59%
    01:00 +10°C° 0 mm 1 mps 662 mmHg 58%
    02:00 +10°C° 0 mm 1 mps 662 mmHg 57%
    03:00 +10°C° 0 mm 1 mps 662 mmHg 57%
    04:00 +10°C° 0 mm 1 mps 662 mmHg 57%
    05:00 +10°C° 0 mm 1 mps 662 mmHg 56%
    06:00 +9°C° 0 mm 1 mps 662 mmHg 56%
    07:00 +11°C° 0 mm 1 mps 663 mmHg 51%
    08:00 +13°C° 0 mm 1 mps 664 mmHg 47%
    09:00 +15°C° 0 mm 1 mps 664 mmHg 42%
    10:00 +18°C° 0 mm 1 mps 664 mmHg 40%
    11:00 +18°C° 0 mm 2 mps 664 mmHg 37%
    12:00 +19°C° 0 mm 2 mps 664 mmHg 35%
    13:00 +19°C° 0 mm 2 mps 664 mmHg 36%
    14:00 +19°C° 0 mm 2 mps 664 mmHg 36%
    15:00 +19°C° 0 mm 2 mps 663 mmHg 37%
    16:00 +17°C° 0 mm 2 mps 663 mmHg 42%
    17:00 +15°C° 0 mm 1 mps 662 mmHg 48%
    18:00 +13°C° 0 mm 0 mps 662 mmHg 54%
    19:00 +13°C° 0 mm 1 mps 662 mmHg 53%
    20:00 +13°C° 0 mm 1 mps 662 mmHg 52%
    21:00 +13°C° 0 mm 1 mps 662 mmHg 50%
    22:00 +13°C° 0 mm 1 mps 662 mmHg 49%
    23:00 +13°C° 0 mm 1 mps 662 mmHg 48%

    26 October, Thursday

    Time Temperature Precipitation Wind Pressure Humidity
    00:00 +13°C° 0 mm 2 mps 662 mmHg 46%
    01:00 +13°C° 0 mm 2 mps 661 mmHg 45%
    02:00 +12°C° 0 mm 2 mps 661 mmHg 44%
    03:00 +12°C° 0 mm 2 mps 661 mmHg 43%
    04:00 +12°C° 0 mm 2 mps 661 mmHg 43%
    05:00 +12°C° 0 mm 2 mps 661 mmHg 42%
    06:00 +12°C° 0 mm 2 mps 660 mmHg 42%
    07:00 +14°C° 0 mm 2 mps 661 mmHg 38%
    08:00 +16°C° 0 mm 2 mps 661 mmHg 33%
    09:00 +19°C° 0 mm 1 mps 662 mmHg 29%
    10:00 +19°C° 0 mm 2 mps 662 mmHg 27%
    11:00 +20°C° 0 mm 2 mps 661 mmHg 25%
    12:00 +21°C° 0 mm 3 mps 661 mmHg 23%
    13:00 +21°C° 0 mm 3 mps 661 mmHg 23%
    14:00 +21°C° 0 mm 3 mps 660 mmHg 23%
    15:00 +21°C° 0 mm 2 mps 660 mmHg 23%
    16:00 +19°C° 0 mm 2 mps 659 mmHg 28%
    17:00 +18°C° 0 mm 1 mps 659 mmHg 32%
    18:00 +15°C° 0 mm 1 mps 659 mmHg 36%
    19:00 +15°C° 0 mm 1 mps 659 mmHg 37%
    20:00 +14°C° 0 mm 1 mps 659 mmHg 37%
    21:00 +14°C° 0 mm 1 mps 659 mmHg 38%
    22:00 +13°C° 0 mm 1 mps 659 mmHg 39%
    23:00 +13°C° 0 mm 1 mps 659 mmHg 41%

    27 October, Friday

    Time Temperature Precipitation Wind Pressure Humidity
    00:00 +12°C° 0 mm 1 mps 659 mmHg 42%
    01:00 +12°C° 0 mm 1 mps 659 mmHg 44%
    02:00 +11°C° 0 mm 1 mps 659 mmHg 45%
    03:00 +11°C° 0 mm 1 mps 659 mmHg 46%
    04:00 +10°C° 0 mm 1 mps 660 mmHg 48%
    05:00 +10°C° 0 mm 1 mps 660 mmHg 49%
    06:00 +10°C° 0 mm 1 mps 660 mmHg 51%
    07:00 +10°C° 0 mm 2 mps 661 mmHg 48%
    08:00 +13°C° 0 mm 2 mps 661 mmHg 45%
    09:00 +14°C° 0 mm 2 mps 662 mmHg 42%
    10:00 +14°C° 0 mm 3 mps 662 mmHg 40%
    11:00 +16°C° 0 mm 3 mps 662 mmHg 39%
    12:00 +17°C° 0 mm 3 mps 662 mmHg 38%
    13:00 +16°C° 0 mm 3 mps 661 mmHg 39%
    14:00 +16°C° 0 mm 3 mps 661 mmHg 41%
    15:00 +16°C° 0 mm 3 mps 661 mmHg 43%
    16:00 +13°C° 0 mm 3 mps 660 mmHg 51%
    17:00 +13°C° 0 mm 2 mps 660 mmHg 60%
    18:00 +10°C° 0 mm 2 mps 660 mmHg 68%
    19:00 +9°C° 0 mm 2 mps 660 mmHg 71%
    20:00 +9°C° 0 mm 2 mps 660 mmHg 73%
    21:00 +9°C° 0 mm 2 mps 660 mmHg 75%
    22:00 +9°C° 0 mm 1 mps 660 mmHg 75%
    23:00 +9°C° 0 mm 1 mps 659 mmHg 75%
    Show more